K7RHT Weather Reports


time (UTC)temp
C
wind
direction
speed
KPH
gust
KPH
rain 1hr
cm
rain 24hr
cm
rain mn
cm
humidity
%
barometer
mb
20260906231550 28 0 0.0 6.4 0.00 0.00 0.00 62 1014.7
20260906230058 28 0 0.0 1.6 0.00 0.00 0.00 64 1014.7
20260906224555 27 0 0.0 6.4 0.00 0.00 0.00 66 1015.1
20260906223100 27 167 1.6 8.0 0.00 0.00 0.00 68 1015.4
20260906221550 26 165 3.2 14.5 0.00 0.00 0.00 71 1015.6
20260906220055 26 175 4.8 14.5 0.00 0.00 0.00 72 1015.8
20260906214601 27 123 9.7 16.1 0.00 0.00 0.00 69 1015.7
20260906213046 27 173 8.0 24.1 0.00 0.00 0.00 69 1015.9
20260906211558 27 129 9.7 17.7 0.00 0.00 0.00 69 1015.9
20260906210113 27 137 9.7 20.9 0.00 0.00 0.00 66 1016.0
20260906204602 29 171 8.0 20.9 0.00 0.00 0.00 60 1015.9
20260906203049 30 125 11.3 27.4 0.00 0.00 0.00 56 1015.8
20260906201553 32 99 4.8 16.1 0.00 0.00 0.00 52 1015.8
20260906200052 32 80 6.4 14.5 0.00 0.00 0.00 52 1015.7
20260906194559 31 142 6.4 17.7 0.00 0.00 0.00 52 1015.8
20260906193054 33 116 8.0 22.5 0.00 0.00 0.00 47 1015.7
20260906191605 36 92 6.4 17.7 0.00 0.00 0.00 42 1015.9
20260906190051 36 184 14.5 20.9 0.00 0.00 0.00 36 1016.0
20260906184553 36 161 8.0 17.7 0.00 0.00 0.00 38 1016.1
20260906183054 35 150 6.4 20.9 0.00 0.00 0.00 38 1016.2
20260906181557 35 189 4.8 16.1 0.00 0.00 0.00 41 1016.5
20260906180115 35 138 8.0 20.9 0.00 0.00 0.00 43 1016.7
20260906174602 34 142 6.4 16.1 0.00 0.00 0.00 43 1017.0
20260906173058 35 131 4.8 11.3 0.00 0.00 0.00 44 1017.2
20260906171547 34 142 6.4 11.3 0.00 0.00 0.00 44 1017.3
20260906170106 33 113 1.6 11.3 0.00 0.00 0.00 45 1017.6
20260906164553 33 129 4.8 12.9 0.00 0.00 0.00 49 1017.7
20260906163057 32 148 4.8 14.5 0.00 0.00 0.00 52 1017.7
20260906161556 31 140 4.8 12.9 0.00 0.00 0.00 54 1017.7
20260906160053 31 152 3.2 8.0 0.00 0.00 0.00 57 1017.6
20260906154556 30 136 4.8 14.5 0.00 0.00 0.00 57 1017.5
20260906153114 29 0 1.6 11.3 0.00 0.00 0.00 63 1017.3
20260906151601 28 161 4.8 14.5 0.00 0.00 0.00 65 1017.2
20260906150053 27 150 1.6 6.4 0.00 0.00 0.00 68 1017.3
20260906144559 27 146 3.2 11.3 0.00 0.00 0.00 69 1017.2
20260906143049 27 207 1.6 9.7 0.00 0.00 0.00 70 1017.2
20260906141555 26 174 6.4 11.3 0.00 0.00 0.00 72 1017.3
20260906140054 25 166 1.6 6.4 0.00 0.00 0.00 74 1017.1
20260906134610 25 158 0.0 3.2 0.00 0.00 0.00 76 1017.0
20260906133101 24 0 0.0 1.6 0.00 0.00 0.00 78 1016.8
20260906131548 22 0 0.0 0.0 0.00 0.00 0.00 81 1016.6
20260906130056 22 0 0.0 1.6 0.00 0.00 0.00 81 1016.3
20260906124550 22 0 0.0 0.0 0.00 0.00 0.00 82 1016.1
20260906123057 21 0 0.0 0.0 0.00 0.00 0.00 84 1016.0
20260906121546 21 0 0.0 0.0 0.00 0.00 0.00 83 1015.8
20260906120052 22 0 0.0 1.6 0.00 0.00 0.00 82 1015.7
20260906114547 22 0 0.0 4.8 0.00 0.00 0.00 81 1015.6
20260906113049 22 0 0.0 3.2 0.00 0.00 0.00 80 1015.2
20260906111558 23 158 0.0 3.2 0.00 0.00 0.00 78 1015.2
20260906110055 22 0 0.0 0.0 0.00 0.00 0.00 81 1015.1
20260906104552 22 0 0.0 0.0 0.00 0.00 0.00 82 1015.0
20260906103111 22 0 0.0 0.0 0.00 0.00 0.00 80 1015.1
20260906101557 22 0 0.0 0.0 0.00 0.00 0.00 81 1015.0
20260906100054 22 0 0.0 0.0 0.00 0.00 0.00 79 1014.9
20260906094548 22 0 0.0 0.0 0.00 0.00 0.00 80 1015.1
20260906093058 23 0 0.0 3.2 0.00 0.00 0.00 78 1015.2
20260906091550 23 0 0.0 3.2 0.00 0.00 0.00 78 1015.1
20260906090104 23 0 1.6 3.2 0.00 0.00 0.00 78 1015.2
20260906084558 23 158 1.6 3.2 0.00 0.00 0.00 76 1015.2
20260906083053 23 158 1.6 3.2 0.00 0.00 0.00 76 1015.2
20260906081600 23 0 1.6 8.0 0.00 0.00 0.00 75 1015.4
20260906080125 24 166 3.2 9.7 0.00 0.00 0.00 74 1015.4
20260906074608 24 144 3.2 9.7 0.00 0.00 0.00 73 1015.5
20260906073108 24 360 3.2 9.7 0.00 0.00 0.00 72 1015.9
20260906071558 25 125 3.2 11.3 0.00 0.00 0.00 71 1016.0
20260906070056 25 153 4.8 12.9 0.00 0.00 0.00 71 1016.0
20260906064549 25 160 4.8 14.5 0.00 0.00 0.00 70 1016.1
20260906063052 25 153 4.8 16.1 0.00 0.00 0.00 70 1016.1
20260906061547 25 136 8.0 17.7 0.00 0.00 0.00 69 1016.3
20260906060058 26 154 8.0 14.5 0.00 0.00 0.00 69 1016.4
20260906054549 26 124 6.4 11.3 0.00 0.00 0.00 67 1016.4
20260906053045 26 125 9.7 20.9 0.00 0.00 0.00 66 1016.3
20260906051603 26 182 8.0 16.1 0.00 0.00 0.00 65 1016.1
20260906050107 26 155 8.0 16.1 0.00 0.00 0.00 63 1016.1
20260906044554 26 162 9.7 17.7 0.00 0.00 0.00 63 1016.2
20260906043101 25 146 8.0 14.5 0.00 0.00 0.00 66 1016.3
20260906041603 27 143 1.6 4.8 0.00 0.00 0.00 61 1016.2
20260906040053 27 131 1.6 3.2 0.00 0.00 0.00 59 1015.9
20260906034617 27 0 0.0 1.6 0.00 0.00 0.00 59 1015.7
20260906033055 27 0 0.0 3.2 0.00 0.00 0.00 58 1015.8
20260906031554 27 0 0.0 3.2 0.00 0.00 0.00 58 1015.6
20260906030059 28 131 1.6 6.4 0.00 0.00 0.00 57 1015.4
20260906024555 28 136 3.2 6.4 0.00 0.00 0.00 57 1015.1
20260906023057 28 110 0.0 4.8 0.00 0.00 0.00 57 1014.8
20260906021603 28 110 3.2 6.4 0.00 0.00 0.00 56 1014.5
20260906020059 28 129 1.6 6.4 0.00 0.00 0.00 56 1014.2
20260906014555 29 139 3.2 6.4 0.00 0.00 0.00 54 1014.1
20260906013103 29 360 3.2 8.0 0.00 0.00 0.00 53 1014.0
20260906011558 30 157 4.8 9.7 0.00 0.00 0.00 52 1013.9
20260906010057 30 360 4.8 16.1 0.00 0.00 0.00 51 1013.8
20260906004555 31 139 8.0 16.1 0.00 0.00 0.00 50 1013.9
20260906003052 31 118 8.0 16.1 0.00 0.00 0.00 49 1013.9
20260906001556 31 140 6.4 19.3 0.00 0.00 0.00 47 1013.7
20260906000106 32 142 8.0 24.1 0.00 0.00 0.00 47 1013.6
20260905234606 32 159 9.7 19.3 0.00 0.00 0.00 46 1013.5
20260905233046 32 151 9.7 19.3 0.00 0.00 0.00 46 1013.5